Radiation Dose at Monitoring Post of Fukushima Daini Nuclear Power Station
Date,Time,MP-1(microSv/h),MP-2(microSv/h),MP-3(microSv/h),MP-4(microSv/h),MP-5(microSv/h),MP-6(microSv/h),MP-7(microSv/h),Wind Direction,Wind Velocity(m/s),Rain
2018/11/05,00:00,0.316,0.194,0.316,0.303,0.282,0.159,0.096,south-southwest,4.0,No
2018/11/05,00:10,0.315,0.195,0.314,0.301,0.286,0.158,0.097,south-southwest,4.3,Yes
2018/11/05,00:20,0.317,0.195,0.317,0.302,0.283,0.157,0.097,south-southwest,3.8,Yes
2018/11/05,00:30,0.315,0.194,0.314,0.302,0.286,0.159,0.097,south-southwest,3.7,Yes
2018/11/05,00:40,0.316,0.194,0.315,0.301,0.283,0.158,0.097,south-southwest,2.9,No
2018/11/05,00:50,0.315,0.194,0.314,0.303,0.285,0.158,0.097,south-southwest,3.4,No
2018/11/05,01:00,0.317,0.194,0.316,0.300,0.282,0.157,0.097,south,3.6,No
2018/11/05,01:10,0.314,0.194,0.315,0.302,0.284,0.159,0.097,south,4.1,No
2018/11/05,01:20,0.315,0.193,0.316,0.301,0.282,0.158,0.096,south,2.6,No
2018/11/05,01:30,0.315,0.194,0.315,0.302,0.285,0.159,0.097,south,4.3,Yes
2018/11/05,01:40,0.315,0.194,0.313,0.302,0.282,0.158,0.097,south,3.9,No
2018/11/05,01:50,0.314,0.194,0.315,0.303,0.286,0.158,0.097,south,3.9,No
2018/11/05,02:00,0.315,0.194,0.314,0.300,0.281,0.158,0.097,south,2.8,No
2018/11/05,02:10,0.315,0.195,0.316,0.302,0.285,0.158,0.097,south,2.8,No
2018/11/05,02:20,0.313,0.194,0.315,0.300,0.283,0.157,0.096,south,2.5,No
2018/11/05,02:30,0.315,0.193,0.316,0.301,0.285,0.159,0.096,south,2.8,No
2018/11/05,02:40,0.315,0.195,0.313,0.303,0.282,0.158,0.096,south-southwest,3.1,Yes
2018/11/05,02:50,0.317,0.193,0.315,0.300,0.284,0.158,0.096,south,1.0,Yes
2018/11/05,03:00,0.315,0.193,0.313,0.302,0.282,0.158,0.096,south-southwest,4.3,Yes
2018/11/05,03:10,0.315,0.195,0.315,0.302,0.285,0.159,0.097,south-southwest,1.8,Yes
2018/11/05,03:20,0.315,0.195,0.314,0.302,0.283,0.160,0.098,south,2.6,Yes
2018/11/05,03:30,0.317,0.194,0.314,0.301,0.284,0.159,0.098,south-southwest,3.7,No
2018/11/05,03:40,0.315,0.195,0.315,0.302,0.282,0.158,0.098,south-southwest,4.5,Yes
2018/11/05,03:50,0.317,0.194,0.315,0.301,0.284,0.159,0.098,south,4.8,Yes
2018/11/05,04:00,0.315,0.194,0.314,0.300,0.283,0.158,0.098,south,4.6,No
2018/11/05,04:10,0.315,0.193,0.314,0.301,0.284,0.158,0.097,south,5.1,No
2018/11/05,04:20,0.314,0.194,0.313,0.300,0.282,0.158,0.097,south,4.2,No
2018/11/05,04:30,0.314,0.194,0.314,0.301,0.283,0.158,0.096,south,3.5,No
2018/11/05,04:40,0.314,0.193,0.313,0.301,0.282,0.159,0.097,south,2.2,Yes
2018/11/05,04:50,0.313,0.192,0.314,0.301,0.283,0.157,0.097,south,1.9,No
2018/11/05,05:00,0.313,0.195,0.314,0.300,0.283,0.157,0.096,south,0.7,No
2018/11/05,05:10,0.314,0.194,0.314,0.301,0.283,0.158,0.097,-,CALM,No
2018/11/05,05:20,0.315,0.195,0.313,0.302,0.283,0.159,0.098,-,CALM,No
2018/11/05,05:30,0.314,0.193,0.315,0.302,0.283,0.158,0.098,north-northeast,1.3,No
2018/11/05,05:40,0.314,0.194,0.313,0.300,0.283,0.158,0.098,north-northeast,2.1,Yes
2018/11/05,05:50,0.314,0.193,0.314,0.302,0.283,0.159,0.097,north,2.2,No
2018/11/05,06:00,0.314,0.195,0.314,0.300,0.284,0.158,0.098,north,3.1,No
2018/11/05,06:10,0.313,0.194,0.312,0.301,0.282,0.158,0.098,north,4.3,No
2018/11/05,06:20,0.317,0.194,0.315,0.301,0.284,0.158,0.098,north,4.8,No
2018/11/05,06:30,0.313,0.193,0.313,0.301,0.282,0.158,0.098,north,5.6,No
2018/11/05,06:40,0.315,0.194,0.314,0.301,0.283,0.158,0.097,north,5.7,No
2018/11/05,06:50,0.312,0.194,0.313,0.300,0.281,0.158,0.096,north,5.4,Yes
2018/11/05,07:00,0.316,0.193,0.315,0.302,0.284,0.158,0.097,north,5.7,Yes
2018/11/05,07:10,0.315,0.194,0.312,0.299,0.281,0.158,0.098,north-northwest,5.2,Yes
2018/11/05,07:20,0.315,0.193,0.314,0.300,0.284,0.158,0.097,north-northwest,4.8,Yes
2018/11/05,07:30,0.315,0.194,0.315,0.299,0.281,0.158,0.097,north,4.5,No
2018/11/05,07:40,0.314,0.192,0.312,0.301,0.283,0.157,0.097,north,4.5,No
2018/11/05,07:50,0.313,0.193,0.313,0.300,0.282,0.158,0.096,north,4.4,No
2018/11/05,08:00,0.313,0.193,0.311,0.300,0.283,0.157,0.097,north,4.1,No
2018/11/05,08:10,0.314,0.192,0.313,0.299,0.281,0.157,0.096,north,4.8,No
2018/11/05,08:20,0.313,0.193,0.312,0.298,0.282,0.156,0.096,north,3.8,No
2018/11/05,08:30,0.314,0.192,0.314,0.300,0.280,0.156,0.096,north,3.9,No
2018/11/05,08:40,0.312,0.193,0.311,0.299,0.283,0.156,0.096,north,3.8,No
2018/11/05,08:50,0.315,0.192,0.314,0.300,0.279,0.157,0.096,north,3.7,No
2018/11/05,09:00,0.312,0.193,0.311,0.298,0.284,0.156,0.097,north,2.8,No
2018/11/05,09:10,0.315,0.191,0.313,0.300,0.280,0.157,0.096,north,3.4,No
2018/11/05,09:20,0.312,0.193,0.311,0.298,0.284,0.155,0.095,north,2.7,No
2018/11/05,09:30,0.314,0.190,0.312,0.300,0.280,0.157,0.096,north,2.2,Yes
2018/11/05,09:40,0.313,0.193,0.312,0.299,0.284,0.156,0.096,north,2.1,Yes
2018/11/05,09:50,0.316,0.193,0.314,0.300,0.281,0.157,0.097,north,2.7,Yes
2018/11/05,10:00,0.313,0.193,0.311,0.299,0.284,0.156,0.096,north,2.2,No
2018/11/05,10:10,0.315,0.193,0.312,0.302,0.281,0.158,0.097,north,2.6,No
2018/11/05,10:20,0.312,0.193,0.312,0.298,0.281,0.156,0.096,north,1.1,No
2018/11/05,10:30,0.316,0.192,0.313,0.299,0.282,0.157,0.097,north,2.2,No
2018/11/05,10:40,0.312,0.193,0.313,0.298,0.279,0.156,0.096,north-northeast,1.7,No
2018/11/05,10:50,0.314,0.191,0.313,0.299,0.283,0.156,0.096,north-northeast,1.8,No
2018/11/05,11:00,0.313,0.194,0.312,0.300,0.280,0.157,0.096,north-northeast,1.9,No
2018/11/05,11:10,0.315,0.192,0.312,0.298,0.284,0.157,0.096,north-northeast,2.0,Yes
2018/11/05,11:20,0.314,0.192,0.312,0.300,0.282,0.159,0.098,north-northeast,2.5,No
2018/11/05,11:30,0.315,0.192,0.313,0.299,0.281,0.156,0.096,north-northeast,3.1,No
2018/11/05,11:40,0.313,0.192,0.311,0.300,0.282,0.157,0.097,north-northeast,4.6,No
2018/11/05,11:50,0.315,0.192,0.312,0.298,0.280,0.156,0.096,north,4.1,No
2018/11/05,12:00,0.313,0.194,0.311,0.301,0.283,0.156,0.096,north-northeast,3.6,No
2018/11/05,12:10,0.313,0.191,0.313,0.297,0.282,0.157,0.096,north,3.9,No
2018/11/05,12:20,0.314,0.193,0.310,0.299,0.283,0.156,0.096,north-northeast,4.3,No
2018/11/05,12:30,0.314,0.191,0.314,0.299,0.282,0.157,0.097,north-northeast,3.9,No
2018/11/05,12:40,0.314,0.194,0.311,0.299,0.281,0.157,0.096,north,4.5,No
2018/11/05,12:50,0.314,0.192,0.313,0.298,0.282,0.157,0.097,north,3.9,Yes
2018/11/05,13:00,0.315,0.193,0.311,0.299,0.281,0.157,0.096,north,3.6,No
2018/11/05,13:10,0.315,0.192,0.312,0.301,0.282,0.156,0.097,north,3.0,No
2018/11/05,13:20,0.313,0.194,0.311,0.299,0.282,0.158,0.096,north,3.5,No
2018/11/05,13:30,0.314,0.192,0.314,0.301,0.281,0.156,0.096,north,2.9,No
2018/11/05,13:40,0.314,0.193,0.312,0.299,0.283,0.157,0.095,north,3.5,No
2018/11/05,13:50,0.314,0.192,0.312,0.301,0.280,0.157,0.096,north,2.9,No
2018/11/05,14:00,0.316,0.193,0.311,0.298,0.283,0.157,0.096,north-northeast,2.8,No
2018/11/05,14:10,0.313,0.192,0.312,0.300,0.281,0.157,0.096,north-northeast,2.6,No
2018/11/05,14:20,0.314,0.194,0.312,0.300,0.283,0.157,0.096,north-northeast,4.0,No
2018/11/05,14:30,0.314,0.192,0.312,0.299,0.281,0.158,0.095,north,3.0,No
2018/11/05,14:40,0.313,0.193,0.311,0.301,0.282,0.156,0.095,north-northeast,2.9,No
2018/11/05,14:50,0.315,0.192,0.313,0.299,0.283,0.158,0.096,north,3.3,No
2018/11/05,15:00,0.314,0.194,0.312,0.303,0.282,0.157,0.095,north,2.9,No
2018/11/05,15:10,0.314,0.194,0.311,0.298,0.285,0.157,0.097,north,2.2,No
2018/11/05,15:20,0.314,0.194,0.311,0.301,0.282,0.156,0.096,north,1.9,No
2018/11/05,15:30,0.312,0.192,0.311,0.299,0.284,0.156,0.096,-,CALM,No
2018/11/05,15:40,0.316,0.194,0.313,0.301,0.283,0.156,0.096,north-northeast,2.7,No
2018/11/05,15:50,0.313,0.193,0.312,0.299,0.284,0.156,0.096,north,3.4,No
2018/11/05,16:00,0.315,0.194,0.313,0.301,0.282,0.157,0.095,north,2.7,No
2018/11/05,16:10,0.313,0.193,0.312,0.299,0.282,0.156,0.096,north-northwest,1.7,No
2018/11/05,16:20,0.314,0.195,0.312,0.301,0.282,0.157,0.097,west-northwest,1.0,No
2018/11/05,16:30,0.314,0.193,0.311,0.299,0.282,0.156,0.096,north,0.9,No
2018/11/05,16:40,0.314,0.194,0.311,0.301,0.283,0.157,0.096,north-northwest,1.1,No
2018/11/05,16:50,0.313,0.193,0.312,0.298,0.283,0.157,0.096,north,1.9,No
2018/11/05,17:00,0.315,0.194,0.311,0.300,0.284,0.158,0.096,north,1.3,No
2018/11/05,17:10,0.313,0.194,0.312,0.300,0.282,0.157,0.096,north,1.4,No
2018/11/05,17:20,0.314,0.193,0.312,0.300,0.284,0.157,0.096,north-northwest,1.5,No
2018/11/05,17:30,0.314,0.194,0.313,0.298,0.282,0.157,0.096,north-northwest,2.1,No
2018/11/05,17:40,0.315,0.194,0.311,0.301,0.283,0.156,0.096,north-northwest,2.1,No
2018/11/05,17:50,0.313,0.194,0.314,0.298,0.282,0.157,0.096,north-northwest,1.3,No
2018/11/05,18:00,0.315,0.193,0.312,0.301,0.282,0.157,0.096,north,1.1,No
2018/11/05,18:10,0.314,0.194,0.314,0.297,0.281,0.158,0.096,northwest,1.3,No
2018/11/05,18:20,0.315,0.193,0.312,0.301,0.282,0.157,0.096,north-northwest,1.7,No
2018/11/05,18:30,0.313,0.194,0.314,0.299,0.283,0.157,0.097,north,1.6,No
2018/11/05,18:40,0.314,0.192,0.312,0.302,0.283,0.157,0.096,north-northwest,1.3,No
2018/11/05,18:50,0.315,0.193,0.312,0.300,0.283,0.157,0.096,north-northwest,1.6,No
2018/11/05,19:00,0.315,0.194,0.312,0.300,0.280,0.158,0.097,north-northwest,2.3,No
2018/11/05,19:10,0.314,0.193,0.312,0.300,0.285,0.156,0.096,north-northwest,2.2,No
2018/11/05,19:20,0.315,0.195,0.313,0.299,0.280,0.157,0.096,north-northwest,2.1,No
2018/11/05,19:30,0.315,0.194,0.312,0.300,0.285,0.157,0.097,north-northwest,1.4,No
2018/11/05,19:40,0.314,0.194,0.314,0.299,0.282,0.157,0.096,north,1.5,No
2018/11/05,19:50,0.317,0.193,0.312,0.302,0.283,0.157,0.096,north,1.3,No
2018/11/05,20:00,0.314,0.194,0.314,0.299,0.282,0.156,0.097,north-northwest,1.3,No
2018/11/05,20:10,0.316,0.194,0.312,0.301,0.283,0.157,0.096,north-northeast,1.1,No
2018/11/05,20:20,0.315,0.193,0.313,0.298,0.281,0.157,0.095,north-northeast,1.1,No
2018/11/05,20:30,0.313,0.195,0.314,0.300,0.283,0.157,0.097,northeast,1.1,No
2018/11/05,20:40,0.313,0.193,0.314,0.301,0.281,0.157,0.096,north,1.1,No
2018/11/05,20:50,0.315,0.194,0.314,0.299,0.283,0.156,0.096,north,0.7,No
2018/11/05,21:00,0.315,0.194,0.312,0.302,0.283,0.157,0.095,north,1.1,No
2018/11/05,21:10,0.314,0.193,0.315,0.299,0.282,0.157,0.096,north-northwest,1.2,No
2018/11/05,21:20,0.316,0.194,0.312,0.301,0.284,0.158,0.096,north,1.4,No
2018/11/05,21:30,0.313,0.193,0.315,0.300,0.280,0.156,0.096,north,1.4,No
2018/11/05,21:40,0.315,0.195,0.312,0.301,0.282,0.157,0.096,north,1.1,No
2018/11/05,21:50,0.313,0.194,0.313,0.300,0.282,0.156,0.096,north,1.5,No
2018/11/05,22:00,0.316,0.193,0.314,0.301,0.285,0.157,0.096,north,2.2,No
2018/11/05,22:10,0.315,0.194,0.314,0.301,0.281,0.157,0.096,north,1.7,No
2018/11/05,22:20,0.316,0.193,0.314,0.299,0.283,0.157,0.096,north,2.3,No
2018/11/05,22:30,0.316,0.194,0.311,0.301,0.281,0.157,0.096,north-northeast,1.4,No
2018/11/05,22:40,0.313,0.194,0.315,0.299,0.283,0.157,0.096,north-northeast,2.1,No
2018/11/05,22:50,0.316,0.194,0.311,0.301,0.281,0.156,0.096,north,2.4,No
2018/11/05,23:00,0.314,0.193,0.313,0.299,0.283,0.156,0.096,north-northeast,1.6,No
2018/11/05,23:10,0.314,0.192,0.314,0.300,0.283,0.157,0.096,north-northeast,1.5,No
2018/11/05,23:20,0.315,0.194,0.314,0.300,0.282,0.157,0.097,north-northeast,1.2,No
2018/11/05,23:30,0.316,0.193,0.313,0.300,0.282,0.157,0.095,north-northwest,1.8,No
2018/11/05,23:40,0.314,0.194,0.313,0.302,0.283,0.156,0.096,north,2.8,No
2018/11/05,23:50,0.314,0.195,0.314,0.299,0.284,0.157,0.096,north,2.6,No
